Home   Weather   Esch-sur-Alzette   Past weeks

Flag for Luxembourg Past Weather in Esch-sur-Alzette, Luxembourg — Yesterday and Last 2 Weeks

Now
30 °F

Sunny.


Feels Like: 19 °F
Forecast: 18 / 31 °F
Wind: 16 mph from Northeast

Location: Luxembourg Airport

Current Time: Jan 19, 2017 at 2:25:55 pm

Latest Report: Jan 19, 2017 at 1:50 pm


Visibility: 10 mi

Pressure: 30.48 "Hg

Humidity: 55%

Dew Point: 16 °F

Location of Esch-sur-AlzetteLocation

Past Weather in Esch-sur-Alzette — Graph

°F

Esch-sur-Alzette Temperature Yesterday

Maximum temperature yesterday: 28 °F (at 3:20 pm)
Minimum temperature yesterday: 19 °F (at 4:20 am)
Average temperature yesterday: 22 °F

High & Low Weather Summary for the Past Weeks

 TemperatureHumidityPressure
High43 °F (Jan 11, 5:50 pm)100% (Jan 4, 12:50 pm)30.66 "Hg (Jan 4, 12:50 pm)
Low16 °F (Jan 7, 3:50 am)59% (Jan 5, 4:50 pm)29.12 "Hg (Jan 13, 12:20 am)
Average29 °F89%30.17 "Hg
* Reported Jan 4 12:20 pm — Jan 19 12:50 pm, Esch-sur-Alzette, Weather by CustomWeather, © 2017

Note: Actual official high and low records may vary slightly from our data, if they occured in-between our weather recording intervals... More about our weather records

Advertising

Esch-sur-Alzette Weather History for the Previous 24 Hours

Scroll right to see more
 ConditionsComfort  
Time TempWeatherWind HumidityBarometerVisibility
12:50 pm
Thu, Jan 19
28 °FSunny.15 mph64%30.51 "Hg10 mi
12:20 pm28 °FSunny.14 mph59%30.51 "Hg10 mi
11:50 am27 °FSunny.14 mph64%30.51 "Hg10 mi
11:20 am25 °FSunny.13 mph69%30.51 "Hg10 mi
10:50 am23 °FSunny.14 mph74%30.51 "Hg10 mi
10:20 am23 °FSunny.15 mph74%30.51 "Hg10 mi
9:50 am21 °FSunny.14 mph80%30.48 "Hg10 mi
9:20 am19 °FSunny.15 mph86%30.48 "Hg10 mi
8:50 am19 °FSunny.17 mph79%30.48 "Hg10 mi
8:20 am19 °FClear.17 mph79%30.48 "Hg10 mi
7:50 am19 °FClear.18 mph86%30.48 "Hg10 mi
7:20 am19 °FClear.17 mph86%30.48 "Hg10 mi
6:50 am19 °FClear.17 mph86%30.48 "Hg10 mi
6:20 am19 °FClear.17 mph86%30.48 "Hg10 mi
5:50 am19 °FClear.16 mph86%30.48 "Hg10 mi
5:20 am19 °FClear.15 mph86%30.48 "Hg10 mi
4:50 am19 °FClear.14 mph86%30.48 "Hg10 mi
4:20 am19 °FClear.13 mph86%30.48 "Hg10 mi
3:50 am19 °FClear.16 mph86%30.48 "Hg10 mi
3:20 am21 °FCold.17 mph80%30.48 "HgN/A
2:50 am19 °FCold.16 mph86%30.48 "HgN/A
2:20 am21 °FCold.14 mph80%30.48 "HgN/A
1:50 am21 °FCold.14 mph86%30.48 "HgN/A
1:20 am21 °FCold.15 mph86%30.48 "HgN/A
12:50 am21 °FClear.15 mph86%30.48 "Hg10 mi
12:20 am21 °FClear.16 mph86%30.48 "Hg10 mi
11:50 pm
Wed, Jan 18
21 °FClear.16 mph86%30.51 "Hg10 mi
11:20 pm21 °FClear.17 mph86%30.51 "Hg10 mi
10:50 pm21 °FClear.16 mph86%30.51 "Hg10 mi
10:20 pm21 °FClear.16 mph86%30.51 "Hg10 mi
9:50 pm23 °FClear.16 mph80%30.51 "Hg10 mi
9:20 pm23 °FClear.16 mph80%30.51 "Hg10 mi
8:50 pm23 °FClear.16 mph80%30.51 "Hg10 mi
8:20 pm23 °FClear.17 mph80%30.51 "Hg10 mi
7:50 pm23 °FClear.18 mph80%30.51 "Hg10 mi
7:20 pm23 °FClear.16 mph80%30.51 "Hg10 mi
6:50 pm23 °FClear.15 mph80%30.51 "Hg10 mi
6:20 pm23 °FClear.16 mph80%30.51 "Hg10 mi
5:50 pm25 °FClear.17 mph74%30.51 "Hg10 mi
5:20 pm25 °FClear.16 mph74%30.51 "Hg10 mi
4:50 pm25 °FSunny.17 mph74%30.51 "Hg10 mi
4:20 pm27 °FSunny.17 mph74%30.51 "Hg10 mi
3:50 pm27 °FSunny.15 mph74%30.51 "Hg10 mi
3:20 pm28 °FSunny.18 mph69%30.51 "Hg10 mi
2:50 pm27 °FSunny.17 mph69%30.51 "Hg10 mi
2:20 pm27 °FSunny.20 mph69%30.51 "Hg10 mi
Weather by CustomWeather, © 2017

See weather overviewHow to use our weather pages